User: anonymous   Login
Location: Caltech
(34.1382°N, 118.1253°W)
Time: 11:18:00
(UTC-08:00)
Language:

Cosmos 1758 Rocket - Orbit

View from above orbital plane
View from above orbital plane
View from above satellite
View from above satellite

Ground track
Ground track

The orbit data is extracted from the following two-line orbital elements,

1 16792U 86046B   17018.87719472  .00000101  00000-0  94135-5 0  9990
2 16792  82.4839 342.8921 0025710  66.2776 323.7286 14.83112104652750
Epoch (UTC): 18 January 2017 21:03:09
Eccentricity: 0.0025710
inclination: 82.4839°
perigee height: 601 km
apogee height: 637 km
right ascension of ascending node: 342.8921°
argument of perigee: 66.2776°
revolutions per day: 14.83112104
mean anomaly at epoch: 323.7286°
orbit number at epoch: 65275

The dashed part of the orbit path shows where the satellite is in the earth's shadow,  

DLR